User: anonymous   Login
Location: Unspecified
(0.0000°N, 0.0000°E)
Time: 08:05:52
(UTC+00:00)
Language:

AO-91 - Orbit

View from above orbital plane
View from above orbital plane
View from above satellite
View from above satellite

Ground track
Ground track

The orbit data is extracted from the following two-line orbital elements,

1 43017U 17073E   25138.91149385  .00008207  00000-0  42584-3 0  9995
2 43017  97.5291  10.2354 0172160 240.1602 118.2417 15.04398690405959
Epoch (UTC): 18 May 2025 21:52:33
Eccentricity: 0.0172160
inclination: 97.5291°
perigee height: 434 km
apogee height: 672 km
right ascension of ascending node: 10.2354°
argument of perigee: 240.1602°
revolutions per day: 15.04398690
mean anomaly at epoch: 118.2417°
orbit number at epoch: 40595

The dashed part of the orbit path shows where the satellite is in the earth's shadow,  

DLR